GSAT0212 (GALILEO 16)

Last updated on Nov. 13, 2019, 4:20 a.m. UTC

1 41860U 16069B   19316.67302105  .00000090  00000-0  00000+0 0  9993
2 41860  54.6156 167.8912 0002795 356.4472   3.6586  1.70473170 18597
UTC
Height (km)
Latitude
Longitude
Inclination
Orbital Period
UTC large
Height (km)
Speed (km/s)
/
Latitude / Longitude
Inclination (degrees)
Orbital Period (minutes)
Azimuth
Elevation
Range (km)
Doppler Factor
iOS Compass Heading
iOS Angle

Next 30 passes for location: Hong Kong

Rise time Rise Azimuth (degrees) Set time Set Azimuth (degrees) Duration Max altitude (degrees)

No matching passes for this satellites